Ithaca, NY

3:20 PM EST on December 15, 2017 (GMT -0500)
Tompkins County

Weather History for KITH - November, 2011

Change the Weather History Date:

Friday, November 4, 2011

  Actual Average Record
Temperature  
Mean Temperature 38 °F -  
Max Temperature 45 °F 54 °F 76 °F (1982)
Min Temperature 28 °F 36 °F 13 °F (1951)
Degree Days  
Heating Degree Days 26    
Moisture  
Dew Point 30 °F    
Average Humidity 73    
Maximum Humidity 93    
Minimum Humidity 48    
Precipitation  
Precipitation 0.00 in - - ()
Sea Level Pressure  
Sea Level Pressure 30.17 in    
Wind  
Wind Speed 7 mph (North)    
Max Wind Speed 17 mph    
Max Gust Speed 21 mph    
Visibility 10 miles    
Events      
Averages and records for this station are not official NWS values.
T = Trace of Precipitation, MM = Missing Value Source: NWS Daily Summary

Daily Weather History Graph

Daily Weather History Graph

Search for Another Location

Airport or City:

Trip Planner

Search our weather history database for the weather conditions in past years. The results will help you decide how hot, cold, wet, or windy it might be!

Date:

Astronomy

Nov. 04, 2011 Rise Set
Actual Time 7:42 AM EDT 5:55 PM EDT
Civil Twilight 7:13 AM EDT 6:24 PM EDT
Nautical Twilight 6:39 AM EDT 6:58 PM EDT
Astronomical Twilight 6:07 AM EDT 7:31 PM EDT
Moon 2:52 PM EDT (11/4) 1:45 AM EDT (11/4)
Length of Visible Light 11h 11m
Length of Day
10h 12m
Waxing Gibbous, 69% of the Moon is Illuminated
Nov 4
Waxing Gibbous
Nov 10
Full
Nov 18
Last Quarter
Nov 25
New
Dec 2
First Quarter

Hourly Weather History & Observations

Time (EDT) Temp. Windchill Dew Point Humidity Pressure Visibility Wind Dir Wind Speed Gust Speed Precip Events Conditions
12:56 AM 41.9 °F 39.0 °F 39.9 °F 93% 30.05 in 10.0 mi NNW 4.6 mph - N/A   Overcast
1:33 AM 42.8 °F 37.0 °F 37.4 °F 81% 30.03 in 10.0 mi North 10.4 mph - N/A   Overcast
1:56 AM 41.9 °F 39.0 °F 36.9 °F 82% 30.04 in 10.0 mi North 4.6 mph - N/A   Overcast
2:56 AM 41.0 °F 37.1 °F 36.9 °F 85% 30.06 in 10.0 mi North 5.8 mph - N/A   Overcast
3:12 AM 41.0 °F 35.8 °F 35.6 °F 81% 30.05 in 10.0 mi NNW 8.1 mph - N/A   Overcast
3:56 AM 38.8 °F 33.8 °F 32.9 °F 79% 30.06 in 10.0 mi North 6.9 mph 17.3 mph N/A   Mostly Cloudy
4:09 AM 37.4 °F - 32.0 °F 81% 30.05 in 10.0 mi Calm Calm - N/A   Scattered Clouds
5:34 AM 37.4 °F - 32.0 °F 81% 30.11 in 10.0 mi Calm Calm - N/A   Mostly Cloudy
5:56 AM 36.9 °F 30.7 °F 32.0 °F 83% 30.12 in 10.0 mi North 8.1 mph - N/A   Overcast
6:29 AM 37.4 °F 30.8 °F 32.0 °F 81% 30.11 in 10.0 mi North 9.2 mph - N/A   Mostly Cloudy
6:56 AM 36.9 °F 30.7 °F 32.0 °F 83% 30.13 in 10.0 mi NNE 8.1 mph - N/A   Scattered Clouds
7:56 AM 34.0 °F 28.8 °F 29.1 °F 82% 30.17 in 10.0 mi NNE 5.8 mph - N/A   Scattered Clouds
8:56 AM 36.0 °F 32.1 °F 29.1 °F 76% 30.19 in 10.0 mi North 4.6 mph - N/A   Scattered Clouds
9:56 AM 37.9 °F 30.9 °F 28.0 °F 68% 30.21 in 10.0 mi North 10.4 mph - N/A   Scattered Clouds
10:56 AM 39.9 °F 32.9 °F 26.1 °F 58% 30.21 in 10.0 mi NNW 11.5 mph - N/A   Partly Cloudy
11:56 AM 41.9 °F 36.3 °F 26.1 °F 53% 30.20 in 10.0 mi North 9.2 mph - N/A   Partly Cloudy
12:56 PM 45.0 °F 39.7 °F 28.0 °F 52% 30.20 in 10.0 mi North 10.4 mph 16.1 mph N/A   Partly Cloudy
2:56 PM 43.9 °F 36.2 °F 25.2 °F 48% 30.19 in 10.0 mi NW 17.3 mph 20.7 mph N/A   Mostly Cloudy
3:56 PM 43.0 °F 37.7 °F 26.1 °F 51% 30.22 in 10.0 mi North 9.2 mph 17.3 mph N/A   Mostly Cloudy
6:56 PM 36.0 °F 31.1 °F 25.2 °F 65% 30.30 in 10.0 mi North 5.8 mph - N/A   Clear
7:56 PM 34.9 °F 29.9 °F 24.1 °F 65% 30.33 in 10.0 mi North 5.8 mph - N/A   Clear
8:56 PM 32.9 °F 27.5 °F 24.1 °F 70% 30.34 in 10.0 mi North 5.8 mph - N/A   Clear
9:56 PM 32.9 °F 29.8 °F 23.0 °F 67% 30.36 in 10.0 mi North 3.5 mph - N/A   Clear
11:56 PM 28.0 °F 24.2 °F 22.1 °F 78% 30.39 in 10.0 mi North 3.5 mph - N/A   Clear